Prestonsburg, KY

1:09 AM EDT on July 24, 2017 (GMT -0400)
Prestonsburg

Weather History for KK22 - January, 2013

Change the Weather History Date:

Monday, January 21, 2013

  Actual Average (KJKL) Record (KJKL)
Temperature  
Mean Temperature 29 °F -  
Max Temperature 38 °F 40 °F 65 °F (1999)
Min Temperature 20 °F 24 °F -18 °F (1985)
Degree Days  
Heating Degree Days 36    
Moisture  
Dew Point 11 °F    
Average Humidity 45    
Maximum Humidity 68    
Minimum Humidity 30    
Precipitation  
Precipitation 0.00 in - - ()
Sea Level Pressure  
Sea Level Pressure 30.08 in    
Wind  
Wind Speed 4 mph (West)    
Max Wind Speed 18 mph    
Max Gust Speed 31 mph    
Visibility 10 miles    
Events      
Averages and records for this station are not official NWS values.
T = Trace of Precipitation, MM = Missing Value Source: NWS Daily Summary

Daily Weather History Graph

Daily Weather History Graph

Search for Another Location

Airport or City:

Trip Planner

Search our weather history database for the weather conditions in past years. The results will help you decide how hot, cold, wet, or windy it might be!

Date:

Astronomy

Jan. 21, 2013 Rise Set
Actual Time 7:42 AM EST 5:42 PM EST
Civil Twilight 7:13 AM EST 6:10 PM EST
Nautical Twilight 6:41 AM EST 6:42 PM EST
Astronomical Twilight 6:10 AM EST 7:13 PM EST
Moon 1:21 PM EST (1/21) 3:08 AM EST (1/21)
Length of Visible Light 10h 56m
Length of Day
10h 00m
Waxing Gibbous, 75% of the Moon is Illuminated
Jan 21
Waxing Gibbous
Jan 26
Full
Feb 3
Last Quarter
Feb 10
New
Feb 17
First Quarter

Hourly Weather History & Observations

Time (EST) Temp. Windchill Dew Point Humidity Pressure Visibility Wind Dir Wind Speed Gust Speed Precip Events Conditions
12:15 AM 31.3 °F - 9.3 °F 40% 30.12 in 10.0 mi Calm Calm - N/A   Clear
12:35 AM 30.7 °F - 9.9 °F 42% 30.12 in 10.0 mi Calm Calm - N/A   Clear
12:55 AM 30.7 °F - 9.0 °F 40% 30.12 in 10.0 mi Calm Calm - N/A   Clear
1:15 AM 31.3 °F - 9.5 °F 40% 30.11 in 10.0 mi Calm Calm - N/A   Clear
1:35 AM 29.7 °F - 11.8 °F 48% 30.11 in 10.0 mi Calm Calm - N/A   Clear
1:55 AM 30.2 °F - 11.1 °F 45% 30.11 in 10.0 mi Calm Calm - N/A   Clear
2:15 AM 29.8 °F - 11.5 °F 46% 30.11 in 10.0 mi Calm Calm - N/A   Clear
2:35 AM 29.7 °F - 10.4 °F 45% 30.11 in 10.0 mi Calm Calm - N/A   Clear
2:55 AM 28.8 °F - 12.2 °F 50% 30.11 in 10.0 mi Calm Calm - N/A   Clear
3:15 AM 30.2 °F - 11.1 °F 45% 30.10 in 10.0 mi Calm Calm - N/A   Clear
3:35 AM 28.8 °F - 12.2 °F 50% 30.10 in 10.0 mi Calm Calm - N/A   Clear
3:55 AM 28.9 °F - 12.4 °F 50% 30.09 in 10.0 mi Calm Calm - N/A   Clear
4:15 AM 28.4 °F - 13.1 °F 53% 30.08 in 10.0 mi Calm Calm - N/A   Clear
4:35 AM 28.0 °F 24.2 °F 14.2 °F 56% 30.07 in 10.0 mi SW 3.5 mph - N/A   Scattered Clouds
4:55 AM 28.4 °F - 14.0 °F 55% 30.07 in 10.0 mi Calm Calm - N/A   Overcast
5:15 AM 27.7 °F - 15.3 °F 60% 30.07 in 10.0 mi Calm Calm - N/A   Scattered Clouds
5:35 AM 27.9 °F - 15.3 °F 59% 30.07 in 10.0 mi Calm Calm - N/A   Clear
5:55 AM 28.0 °F - 14.9 °F 58% 30.07 in 10.0 mi Calm Calm - N/A   Scattered Clouds
6:15 AM 26.8 °F 22.8 °F 17.4 °F 68% 30.07 in 10.0 mi West 3.5 mph - N/A   Mostly Cloudy
6:35 AM 27.5 °F - 16.5 °F 63% 30.07 in 10.0 mi Calm Calm - N/A   Overcast
6:55 AM 28.4 °F - 14.9 °F 57% 30.08 in 10.0 mi Calm Calm - N/A   Overcast
7:15 AM 27.9 °F - 16.9 °F 63% 30.07 in 10.0 mi Calm Calm - N/A   Scattered Clouds
7:35 AM 27.9 °F - 16.3 °F 62% 30.08 in 10.0 mi Calm Calm - N/A   Mostly Cloudy
7:55 AM 28.0 °F - 15.8 °F 60% 30.08 in 10.0 mi Calm Calm - N/A   Overcast
8:15 AM 28.2 °F - 16.0 °F 60% 30.08 in 10.0 mi Calm Calm - N/A   Overcast
8:35 AM 28.0 °F - 17.2 °F 64% 30.09 in 10.0 mi Calm Calm - N/A   Overcast
8:55 AM 28.2 °F 23.1 °F 16.9 °F 63% 30.09 in 10.0 mi West 4.6 mph - N/A   Overcast
9:15 AM 28.2 °F 23.1 °F 16.5 °F 62% 30.10 in 10.0 mi West 4.6 mph - N/A   Overcast
9:35 AM 29.3 °F 23.2 °F 16.5 °F 59% 30.10 in 10.0 mi WSW 5.8 mph - N/A   Overcast
9:55 AM 30.0 °F 24.1 °F 16.3 °F 57% 30.10 in 10.0 mi West 5.8 mph - N/A   Overcast
10:15 AM 31.5 °F 23.5 °F 15.4 °F 52% 30.10 in 10.0 mi WSW 9.2 mph - N/A   Overcast
10:35 AM 32.2 °F 23.8 °F 15.6 °F 51% 30.09 in 10.0 mi WSW 10.4 mph - N/A   Mostly Cloudy
10:55 AM 32.9 °F 25.9 °F 15.1 °F 48% 30.09 in 10.0 mi WSW 8.1 mph - N/A   Mostly Cloudy
11:15 AM 34.9 °F 28.3 °F 14.2 °F 43% 30.08 in 10.0 mi WSW 8.1 mph - N/A   Overcast
11:35 AM 35.6 °F 27.5 °F 11.3 °F 37% 30.07 in 10.0 mi WSW 11.5 mph - N/A   Mostly Cloudy
11:55 AM 35.8 °F 28.3 °F 9.9 °F 34% 30.06 in 10.0 mi WSW 10.4 mph - N/A   Scattered Clouds
12:15 PM 36.1 °F 26.9 °F 12.4 °F 38% 30.04 in 10.0 mi West 15.0 mph 21.9 mph N/A   Clear
12:35 PM 36.5 °F 27.8 °F 12.7 °F 38% 30.03 in 10.0 mi West 13.8 mph 23.0 mph N/A   Clear
12:55 PM 36.9 °F 28.7 °F 13.3 °F 38% 30.02 in 10.0 mi WNW 12.7 mph 21.9 mph N/A   Clear
1:15 PM 36.7 °F 26.9 °F 12.2 °F 37% 30.01 in 10.0 mi WSW 17.3 mph 31.1 mph N/A   Clear
1:35 PM 37.4 °F 28.5 °F 13.1 °F 37% 30.00 in 10.0 mi WNW 15.0 mph 24.2 mph N/A   Clear
1:55 PM 37.9 °F 33.5 °F 12.6 °F 35% 30.00 in 10.0 mi West 5.8 mph 18.4 mph N/A   Clear
2:15 PM 38.1 °F 30.7 °F 11.1 °F 33% 30.00 in 10.0 mi West 11.5 mph 20.7 mph N/A   Clear
2:35 PM 38.1 °F 29.5 °F 11.1 °F 33% 30.00 in 10.0 mi West 15.0 mph 20.7 mph N/A   Clear
2:55 PM 36.5 °F 26.3 °F 7.5 °F 30% 30.02 in 10.0 mi WNW 18.4 mph 29.9 mph N/A   Clear
3:15 PM 36.5 °F 27.8 °F 7.9 °F 30% 30.01 in 10.0 mi West 13.8 mph 23.0 mph N/A   Clear
3:35 PM 36.1 °F 28.7 °F 8.4 °F 32% 30.02 in 10.0 mi WNW 10.4 mph 20.7 mph N/A   Clear
3:55 PM 35.4 °F 26.8 °F 9.0 °F 33% 30.03 in 10.0 mi WNW 12.7 mph 21.9 mph N/A   Clear
4:15 PM 34.5 °F 24.1 °F 8.4 °F 34% 30.04 in 10.0 mi West 17.3 mph 26.5 mph N/A   Clear
4:35 PM 33.8 °F 24.8 °F 6.8 °F 32% 30.04 in 10.0 mi West 12.7 mph 25.3 mph N/A   Clear
4:55 PM 33.3 °F 25.7 °F 7.9 °F 35% 30.04 in 10.0 mi West 9.2 mph 18.4 mph N/A   Clear
5:15 PM 32.4 °F 23.0 °F 7.7 °F 36% 30.05 in 10.0 mi West 12.7 mph 19.6 mph N/A   Clear
5:35 PM 31.6 °F 22.1 °F 7.3 °F 36% 30.05 in 10.0 mi WNW 12.7 mph 21.9 mph N/A   Clear
5:55 PM 30.7 °F 22.0 °F 7.5 °F 38% 30.07 in 10.0 mi WNW 10.4 mph 20.7 mph N/A   Clear
6:15 PM 30.2 °F 21.3 °F 8.6 °F 40% 30.07 in 10.0 mi WNW 10.4 mph 21.9 mph N/A   Clear
6:35 PM 29.5 °F 20.4 °F 7.5 °F 40% 30.07 in 10.0 mi WNW 10.4 mph 20.7 mph N/A   Clear
6:55 PM 29.1 °F 19.4 °F 7.9 °F 41% 30.07 in 10.0 mi West 11.5 mph 20.7 mph N/A   Clear
7:15 PM 28.8 °F 17.5 °F 7.7 °F 41% 30.07 in 10.0 mi WNW 15.0 mph 18.4 mph N/A   Clear
7:35 PM 28.2 °F 20.2 °F 7.0 °F 41% 30.08 in 10.0 mi WNW 8.1 mph 17.3 mph N/A   Clear
7:55 PM 28.0 °F 20.0 °F 6.8 °F 41% 30.09 in 10.0 mi West 8.1 mph - N/A   Clear
8:15 PM 27.1 °F 17.5 °F 4.5 °F 38% 30.09 in 10.0 mi NW 10.4 mph - N/A   Clear
8:35 PM 25.9 °F 17.4 °F 3.2 °F 38% 30.10 in 10.0 mi WNW 8.1 mph 18.4 mph N/A   Clear
8:55 PM 25.3 °F 16.0 °F 3.2 °F 39% 30.11 in 10.0 mi NW 9.2 mph 18.4 mph N/A   Scattered Clouds
9:15 PM 25.2 °F 16.5 °F 3.6 °F 40% 30.12 in 10.0 mi NW 8.1 mph - N/A   Overcast
9:35 PM 24.4 °F 13.0 °F 3.2 °F 40% 30.12 in 10.0 mi NW 12.7 mph 21.9 mph N/A   Overcast
9:55 PM 23.9 °F 12.9 °F 3.0 °F 41% 30.12 in 10.0 mi NW 11.5 mph 18.4 mph N/A   Overcast
10:15 PM 23.2 °F 14.1 °F 3.6 °F 43% 30.14 in 10.0 mi NW 8.1 mph - N/A   Overcast
10:35 PM 22.5 °F 10.5 °F 3.7 °F 45% 30.15 in 10.0 mi WNW 12.7 mph 20.7 mph N/A   Overcast
10:55 PM 22.1 °F 12.0 °F 3.9 °F 46% 30.15 in 10.0 mi West 9.2 mph - N/A   Overcast
11:15 PM 21.2 °F 13.6 °F 3.7 °F 47% 30.16 in 10.0 mi NW 5.8 mph - N/A   Mostly Cloudy
11:35 PM 20.7 °F 11.0 °F 3.2 °F 47% 30.17 in 10.0 mi WNW 8.1 mph 20.7 mph N/A   Clear
11:55 PM 20.1 °F 11.3 °F 3.2 °F 48% 30.16 in 10.0 mi NW 6.9 mph - N/A   Clear